Wind_Speed
4 4 4 5 6 7 7 7 7 7 7 6 6 6 5 6 6 8 10 12 14 15 17 18 20 21 23 24 26 27 28 29 30 30 30 29 28 27 26 26 26 26 27 27 27 27 27 27 26 24 23 24 24 24 24 24 23 22 21 21 21 20 19
5 5 6 6 8 9 9 9 10 10 10 9 9 9 8 7 6 6 7 9 10 11 12 14 16 18 20 22 24 25 26 27 28 29 30 30 31 31 31 31 30 30 30 31 31 31 32 32 31 28 26 27 27 26 26 26 26 26 26 24 23 22 22
7 7 7 8 10 11 11 11 11 11 11 12 12 11 11 10 9 8 8 8 9 10 10 10 11 13 16 18 20 21 23 25 26 27 28 29 30 32 33 34 35 35 35 35 35 35 35 36 35 33 32 32 32 30 28 29 29 29 29 28 27 25 24
8 9 9 11 12 13 13 12 12 11 11 12 13 13 13 12 11 10 10 10 10 10 10 10 10 11 12 14 15 17 18 20 22 24 25 27 28 30 32 33 34 35 36 38 38 38 38 39 39 38 38 37 37 35 32 31 32 32 32 31 30 29 28
9 10 10 11 12 13 13 12 12 11 11 11 12 13 13 14 13 12 12 12 12 12 11 11 12 12 12 13 14 15 16 17 18 20 21 22 24 26 28 30 32 33 34 36 38 39 40 41 42 43 42 41 42 40 37 36 35 35 34 33 33 32 31
11 10 10 11 12 12 12 11 11 11 10 11 11 12 13 14 14 14 14 13 13 13 13 13 13 13 14 14 15 15 16 16 17 18 19 19 20 22 24 25 27 29 31 34 36 38 39 40 41 42 42 43 44 42 41 41 39 37 36 35 35 34 34
11 11 10 11 12 12 11 11 11 11 11 11 12 12 13 14 14 15 15 15 15 16 16 16 16 15 16 16 16 16 17 17 18 19 19 19 20 21 21 22 23 25 27 30 33 36 37 38 39 41 41 42 42 41 41 41 41 41 39 37 37 37 36
12 12 11 11 12 11 11 11 12 12 12 12 12 13 13 14 14 15 16 16 17 17 17 18 18 18 17 18 18 18 19 19 19 20 21 21 22 22 21 22 22 23 24 26 29 31 34 36 37 39 40 41 42 42 41 41 41 41 40 40 40 39 38
13 13 12 12 12 12 12 12 12 13 13 12 12 13 13 14 14 15 16 17 17 18 18 18 18 18 19 19 20 20 21 21 21 22 22 23 24 24 24 23 23 24 25 26 27 28 30 32 33 35 37 40 42 42 42 42 41 39 38 39 39 40 40
15 14 13 13 14 13 12 13 13 13 13 13 13 13 14 14 14 15 16 16 16 17 17 17 17 18 18 19 20 21 21 22 23 24 24 24 25 25 26 26 25 26 27 27 28 29 30 30 31 32 34 37 40 42 42 42 41 39 37 37 37 37 38
16 16 15 15 15 14 14 14 14 14 14 14 14 14 15 15 15 15 16 16 16 16 16 17 17 17 18 19 19 20 21 22 23 24 25 26 26 26 26 26 26 27 28 29 29 30 31 31 31 31 32 33 36 40 41 42 41 39 37 37 36 35 36
19 19 18 17 17 16 15 15 15 16 16 16 16 16 16 16 16 17 17 17 17 16 16 16 17 17 18 19 19 20 21 21 22 23 24 25 26 27 27 27 27 27 29 30 31 31 32 33 33 33 33 33 35 37 39 41 42 38 37 38 37 35 35
21 21 20 19 18 18 17 16 17 17 18 19 19 19 19 19 18 18 18 18 18 17 17 17 17 18 18 19 20 20 20 21 22 22 23 24 26 27 28 28 29 29 29 30 31 32 33 34 35 35 35 35 36 37 38 40 43 39 36 38 38 37 37
22 23 23 21 20 19 18 18 18 19 20 20 21 21 22 21 21 21 20 20 19 19 19 19 19 19 20 20 21 21 21 21 21 22 23 24 25 26 27 28 29 30 31 32 32 33 34 35 36 37 37 38 38 38 39 40 43 42 37 37 39 39 39
24 24 24 22 22 21 20 19 19 20 21 22 23 23 24 24 24 23 23 22 22 22 22 22 22 22 22 22 22 23 23 23 23 23 24 25 26 27 28 28 29 30 32 33 33 33 34 35 37 37 38 39 40 40 41 42 43 44 41 38 38 39 40
25 25 24 23 23 22 21 21 21 22 23 23 24 25 26 26 26 25 25 25 25 25 25 25 25 25 24 24 24 25 25 25 26 26 26 27 27 28 30 30 30 31 32 33 34 34 35 36 37 38 38 40 41 41 41 43 45 45 44 41 39 40 40
24 25 24 23 22 21 22 22 22 23 24 24 25 26 27 28 27 27 27 27 26 27 28 28 28 27 27 27 27 27 28 28 28 28 28 29 30 30 31 31 32 33 34 35 35 35 36 38 38 39 39 40 41 42 42 43 45 46 46 44 42 42 42
22 22 21 21 20 20 21 22 23 24 24 25 26 27 29 29 29 28 28 28 28 29 29 30 30 30 29 30 30 30 30 31 30 31 30 31 31 32 33 34 34 35 36 36 37 36 37 39 40 40 41 41 41 42 43 44 45 46 47 46 44 42 43
21 22 21 20 20 21 22 23 24 25 26 27 28 29 30 30 30 29 29 29 30 30 31 31 31 31 32 32 32 33 33 33 33 33 33 33 34 34 35 36 36 36 37 38 39 39 39 40 41 41 42 42 42 43 44 44 46 47 47 47 45 43 43
25 24 24 23 22 23 24 25 25 26 27 28 30 31 32 32 31 31 30 31 31 32 32 32 32 33 33 34 34 35 35 35 35 35 35 35 36 36 36 36 36 36 37 38 39 40 40 41 42 42 43 44 44 45 45 45 46 47 48 48 46 44 43
29 28 26 25 26 26 27 27 27 28 29 30 31 32 33 33 33 32 32 33 33 33 33 34 34 34 35 35 36 36 37 37 37 38 38 38 37 37 37 37 37 37 37 38 39 40 41 42 42 43 43 44 45 46 47 47 47 48 48 48 47 45 44
33 32 30 29 28 29 29 29 29 30 30 31 32 33 34 34 34 34 34 34 35 35 35 35 35 36 36 36 37 38 39 39 40 40 40 39 38 38 38 39 39 39 39 39 40 41 41 42 43 44 44 44 45 46 47 48 48 48 49 49 48 46 44
38 35 33 32 31 31 31 31 32 32 32 32 33 34 34 35 35 36 36 36 36 36 36 36 37 37 37 38 39 40 41 41 42 42 41 41 40 39 40 40 41 41 41 41 41 41 42 43 44 44 45 45 45 45 46 47 48 49 49 49 48 47 45
42 39 37 33 33 33 33 34 34 34 33 33 34 35 35 36 36 37 37 37 37 37 37 37 38 38 38 39 40 42 42 42 43 43 43 42 42 42 42 42 43 43 43 43 42 42 42 43 44 45 46 46 45 46 46 46 47 48 49 50 49 47 47
44 40 38 34 35 37 36 36 37 36 35 35 35 35 36 37 37 37 37 37 37 38 38 38 38 39 40 41 42 43 43 43 43 44 44 44 44 44 44 44 44 44 44 44 43 43 43 43 43 44 45 46 46 46 46 46 46 47 48 49 49 48 47
42 37 37 36 39 41 39 39 38 37 37 36 35 36 36 37 37 38 38 38 38 38 38 39 40 41 42 42 43 43 44 44 44 45 45 45 46 46 45 45 45 45 45 45 44 44 44 44 44 44 44 46 46 47 47 47 46 46 47 48 49 49 46
38 35 38 39 40 40 39 39 40 39 38 36 35 36 36 37 38 38 39 38 38 39 39 40 41 42 43 43 44 44 44 45 46 46 47 47 47 47 46 46 46 46 46 45 45 45 45 45 45 44 44 45 46 47 48 48 48 48 48 48 49 48 46
35 34 36 38 38 38 38 40 41 40 38 36 36 36 37 38 38 38 38 38 39 40 40 41 42 43 44 44 45 45 45 46 46 47 48 48 48 47 47 47 48 47 47 46 46 45 45 45 46 46 45 45 46 46 48 49 50 50 50 49 50 49 47
38 37 37 37 37 38 38 40 40 38 36 36 37 37 38 38 37 37 38 39 40 40 41 42 43 44 45 45 45 45 46 47 48 49 49 49 49 48 48 48 49 48 48 47 46 46 46 47 47 47 48 48 48 48 48 48 49 50 51 51 51 50 49
41 41 40 40 41 41 40 41 40 37 36 36 37 37 37 37 36 37 38 39 40 41 42 43 43 44 44 45 46 47 48 48 49 50 50 50 50 49 49 49 49 49 49 48 48 47 48 49 49 49 49 50 50 50 49 49 49 50 51 52 52 52 51
42 42 42 43 45 44 42 41 39 37 37 37 36 35 35 35 36 36 37 39 40 41 42 42 43 43 44 45 47 48 49 50 50 51 51 51 51 51 51 50 50 50 50 49 49 49 49 50 51 51 51 52 52 52 51 50 51 52 53 53 54 54 54
42 44 44 44 43 40 38 36 35 34 35 35 35 35 35 35 35 36 37 39 40 41 41 42 42 43 44 45 47 48 49 51 51 51 51 51 52 52 51 51 51 51 51 51 51 51 51 52 53 54 54 55 55 54 52 52 53 54 55 56 56 56 56
44 46 43 37 35 35 33 32 32 31 32 32 33 34 35 35 35 35 37 38 39 40 41 41 41 42 43 45 46 47 49 50 51 52 52 53 53 53 53 53 53 53 53 53 53 53 53 53 55 56 57 58 58 56 55 55 56 57 58 58 58 58 58
45 43 37 31 30 31 30 29 29 29 29 30 30 31 32 32 33 33 35 37 38 38 39 40 41 41 42 44 45 47 49 50 51 53 54 54 55 55 55 55 55 55 55 55 55 55 55 55 56 57 58 59 59 58 58 58 59 59 60 61 61 61 60
35 33 31 29 27 27 26 26 26 25 26 26 27 27 29 30 30 31 32 34 35 36 37 38 40 41 42 44 45 47 48 50 51 53 55 56 56 57 57 57 58 58 58 57 57 57 56 56 57 57 58 59 59 60 60 61 62 62 63 63 64 64 63
26 25 26 25 23 22 22 22 21 21 22 23 24 25 26 27 28 29 30 32 33 35 36 37 39 41 42 44 45 46 47 49 50 52 55 56 57 57 58 58 59 59 58 58 57 57 57 57 57 58 59 60 60 61 62 63 64 65 65 65 66 67 66
24 22 21 18 17 17 17 17 18 19 20 21 21 22 23 25 26 28 29 31 32 33 35 36 38 40 41 42 43 44 46 47 49 51 53 55 56 57 58 58 58 58 58 58 58 58 58 58 58 58 58 58 59 60 61 62 63 64 65 66 67 67 67
Wind_Direction
309 309 312 308 298 298 300 298 296 293 290 291 290 283 275 263 249 244 247 251 253 255 254 253 253 255 255 254 253 253 252 251 251 250 250 249 249 249 249 248 249 251 254 255 255 255 255 255 252 249 251 254 255 256 259 260 260 259 256 254 253 253 254
290 291 293 293 296 300 302 302 301 300 298 296 294 292 287 281 271 260 255 255 257 259 259 258 256 257 258 258 258 258 258 257 256 255 254 252 250 250 250 250 250 251 253 254 255 255 256 257 255 252 252 255 256 255 257 259 260 260 259 257 257 255 253
279 283 289 293 298 301 301 302 301 298 297 294 291 289 285 281 276 272 267 264 263 264 265 264 262 261 260 262 262 262 262 262 261 260 258 256 254 253 253 253 253 254 255 255 255 255 256 257 257 255 253 253 253 253 254 259 260 259 260 260 259 256 255
271 279 288 294 298 299 299 299 297 293 289 285 284 284 284 282 278 275 272 270 268 267 267 267 267 267 265 265 266 266 265 265 265 264 262 260 258 257 256 256 256 256 256 256 256 256 256 257 258 258 256 255 254 252 250 253 257 259 260 261 260 258 257
266 275 284 291 295 297 298 297 294 291 286 280 278 279 281 282 282 280 277 275 273 270 270 269 269 270 270 270 269 269 268 267 267 267 266 264 262 260 259 258 258 257 257 257 257 257 257 258 259 260 259 258 257 255 252 250 252 255 257 259 260 261 260
264 272 279 286 292 296 298 297 293 289 285 280 276 274 275 277 279 280 280 279 278 276 274 273 271 269 270 271 272 273 272 271 270 269 269 268 266 263 262 261 260 259 258 258 258 258 258 259 260 261 261 260 260 258 255 253 251 252 254 256 259 260 260
264 269 277 286 292 298 300 298 295 292 287 280 274 270 268 268 269 272 274 274 274 274 274 274 272 270 268 267 267 270 271 272 272 271 270 270 269 267 266 265 264 262 260 259 259 259 259 260 261 262 263 262 263 262 259 257 254 252 251 252 255 257 258
264 269 277 287 295 301 303 300 296 293 289 282 276 272 268 264 264 264 265 266 267 267 268 269 271 271 271 269 268 267 268 268 269 269 270 270 271 270 269 268 268 267 265 263 261 261 261 261 260 262 263 264 264 264 263 262 259 255 252 250 250 253 255
265 271 279 286 294 302 305 302 297 293 290 286 281 278 274 269 266 263 262 261 262 263 264 266 268 269 270 271 271 271 272 271 270 269 268 268 269 270 271 270 270 269 269 267 265 265 264 264 263 262 263 265 266 265 264 263 262 260 257 253 250 250 252
265 271 276 282 290 298 304 302 297 293 292 290 287 283 279 276 272 267 265 263 264 265 266 267 268 269 269 269 270 271 271 273 274 273 272 271 269 269 270 270 270 270 270 269 268 267 266 266 266 265 263 263 265 266 265 263 262 261 260 258 255 251 249
261 266 271 277 284 292 300 300 296 293 292 291 291 288 285 282 278 275 272 270 269 269 269 270 271 271 271 271 271 270 271 271 272 273 275 275 275 273 271 271 270 270 270 270 269 269 269 268 268 267 266 264 264 265 266 265 262 260 260 259 257 254 251
255 261 267 273 280 287 293 297 295 292 292 292 292 291 289 286 283 280 279 277 276 274 275 275 275 274 273 272 271 271 271 272 272 272 273 275 277 277 277 275 273 272 271 271 271 270 270 270 270 269 268 267 266 266 267 267 265 261 259 259 256 254 252
252 258 264 269 275 281 287 292 293 291 291 292 293 292 290 288 285 283 281 281 281 281 282 281 279 277 275 274 273 273 272 273 274 275 275 276 276 276 278 278 277 275 273 273 272 272 272 271 271 271 270 269 268 268 268 267 267 264 260 259 257 253 251
251 255 262 267 272 277 282 288 289 288 290 291 291 291 290 289 287 286 285 284 285 285 285 284 282 280 278 277 277 277 277 277 277 277 278 279 279 278 278 278 278 277 276 274 273 272 272 272 271 271 271 271 270 270 270 269 269 268 264 260 259 256 252
251 255 261 266 270 274 279 284 285 286 287 289 289 290 290 289 288 287 287 287 288 289 288 286 284 281 280 280 280 280 281 281 280 280 280 281 281 282 282 280 279 278 277 276 275 273 272 271 271 271 271 271 271 271 272 271 271 271 269 264 262 259 255
250 255 261 265 270 273 277 280 282 282 284 286 288 288 288 288 287 287 287 287 289 290 290 288 286 284 283 283 283 283 283 283 283 284 283 283 283 283 283 283 282 280 279 277 276 275 273 272 270 270 269 270 270 270 270 272 272 272 271 268 265 263 259
251 255 260 264 268 271 273 275 277 279 281 284 286 287 287 287 286 286 286 287 288 289 289 289 288 287 286 285 284 284 284 284 285 285 285 285 285 285 284 283 282 281 280 279 277 276 274 273 271 270 268 268 268 269 269 269 270 271 271 270 268 266 264
255 256 260 263 264 265 267 270 272 274 278 281 283 285 286 286 285 285 286 286 287 288 288 289 289 288 287 286 286 286 286 286 286 285 286 286 286 285 284 283 282 281 280 280 279 277 275 274 272 271 269 267 266 267 267 267 268 269 269 269 268 267 267
260 258 259 259 260 260 261 264 268 271 274 277 280 283 284 285 284 284 285 285 286 286 286 287 287 287 286 286 286 286 286 286 286 286 286 287 287 287 286 285 284 282 281 280 279 278 277 275 274 272 271 269 267 265 264 265 266 267 267 267 267 265 265
260 256 253 253 254 255 258 262 265 268 270 273 277 280 282 283 284 284 284 284 284 285 285 285 285 285 285 286 286 286 286 286 287 288 289 290 290 289 288 287 285 284 282 281 280 279 277 276 275 274 272 271 270 268 266 264 264 265 266 266 266 264 263
256 251 246 246 248 251 256 261 263 265 267 270 274 277 279 282 284 283 283 283 284 284 285 285 285 285 285 285 286 286 287 288 289 289 290 290 290 289 289 288 287 286 284 282 280 279 278 276 275 274 273 272 270 270 269 267 265 264 265 265 265 264 263
249 247 244 241 244 249 255 260 261 262 265 268 271 274 278 280 282 282 282 283 283 284 284 284 284 285 285 286 286 287 287 288 289 289 289 289 289 289 289 289 288 287 285 283 281 280 278 277 275 274 273 271 270 269 268 268 267 266 265 265 265 264 262
243 239 239 239 241 247 253 257 259 260 261 265 268 272 276 278 279 280 281 282 283 283 284 284 284 285 286 286 286 286 287 288 288 289 289 289 290 290 290 290 289 288 286 285 283 280 278 276 275 274 273 271 269 268 267 267 267 267 266 265 265 264 263
254 239 234 236 239 244 250 254 256 257 258 263 267 271 274 276 277 279 280 281 282 283 283 284 284 286 286 286 286 286 287 288 289 289 290 290 290 290 289 289 288 288 287 285 283 281 278 276 274 273 273 271 270 268 267 265 265 265 266 266 265 265 264
267 247 233 235 241 245 250 252 253 255 257 261 266 269 273 275 276 278 280 281 282 282 283 284 285 286 286 285 286 287 288 289 290 290 290 290 289 289 288 288 287 287 286 285 283 280 278 276 274 272 271 271 270 269 268 266 264 263 263 264 265 264 264
273 254 235 237 242 244 247 249 250 252 255 259 264 268 271 274 276 278 279 280 281 282 284 285 285 285 285 286 287 288 289 290 290 290 289 289 288 288 288 287 287 286 285 284 282 280 278 276 274 272 270 269 269 269 268 267 265 263 262 262 263 263 263
273 255 240 241 241 238 241 246 248 250 254 259 264 267 270 272 275 277 279 280 283 284 285 286 286 286 287 287 289 289 289 290 289 289 288 288 288 288 288 288 288 287 286 284 282 279 277 275 274 272 270 268 267 267 267 267 266 264 262 261 261 262 262
266 257 248 246 239 233 235 240 244 248 253 258 262 265 268 271 274 277 280 282 284 285 286 287 288 288 289 289 289 289 289 289 289 288 288 288 289 289 290 289 289 287 286 284 282 280 278 276 274 273 271 269 267 265 265 265 266 265 264 262 261 261 260
261 259 254 249 241 236 236 239 242 246 251 256 259 263 267 271 274 278 281 283 285 286 288 289 289 290 290 291 291 290 290 290 289 289 289 290 290 290 289 289 288 287 285 284 281 279 278 276 274 273 272 270 268 266 264 264 264 264 264 263 262 261 259
257 256 256 254 248 245 244 243 242 244 249 253 257 262 267 271 275 279 282 285 287 288 289 289 290 291 292 292 292 292 291 291 290 290 290 290 289 289 288 287 286 285 283 281 279 277 276 274 273 272 271 270 268 267 266 264 263 263 262 262 262 261 259
253 252 253 252 249 246 244 242 240 243 249 253 258 263 269 272 276 280 284 286 287 288 289 290 291 292 293 293 293 292 291 291 290 290 290 289 289 288 288 287 286 285 283 281 278 276 274 273 272 271 269 268 267 266 266 265 263 262 261 260 259 259 258
251 249 245 242 241 239 238 238 240 245 252 256 261 267 271 274 278 283 286 287 288 289 290 292 292 293 293 293 293 292 292 291 291 290 290 290 289 289 289 288 287 286 284 283 280 278 275 273 272 270 269 267 266 265 264 264 263 261 260 259 257 256 256
249 246 239 233 232 233 234 238 243 250 257 261 264 267 270 275 280 285 287 289 291 291 292 292 293 293 293 294 294 293 293 293 293 293 292 292 291 291 290 289 288 287 285 284 282 280 277 275 272 270 268 267 266 265 264 262 261 260 259 258 257 255 254
240 236 232 229 228 229 233 240 247 254 259 262 265 269 274 279 284 288 290 290 291 291 292 293 294 294 294 295 295 294 294 294 294 294 294 293 292 291 291 290 289 288 286 284 283 280 278 276 274 271 269 267 266 265 264 262 260 259 258 257 257 255 254
221 218 222 226 228 229 235 244 250 255 261 267 273 278 282 285 288 289 289 290 291 292 293 294 294 295 294 294 293 293 293 293 293 292 292 292 292 291 291 290 289 287 286 284 282 280 278 276 274 272 271 269 268 267 265 264 262 260 259 258 257 256 254
211 209 215 221 226 233 241 248 255 262 270 277 282 283 285 287 288 289 290 291 292 293 293 293 293 292 291 291 291 291 291 291 291 291 291 292 291 290 289 288 287 286 285 283 282 280 278 275 273 271 270 269 268 267 266 265 263 262 260 258 256 255 254
208 207 211 219 230 239 247 256 265 273 278 281 282 283 285 287 289 291 292 292 292 292 291 290 290 290 291 291 292 292 291 291 291 290 291 290 290 289 288 287 286 285 284 282 281 279 277 275 273 271 270 269 267 266 265 264 262 261 260 258 256 255 254
Height
3118 3118 3118 3118 3119 3119 3119 3118 3118 3118 3117 3117 3117 3117 3117 3117 3118 3118 3117 3117 3117 3117 3118 3119 3119 3119 3120 3120 3121 3122 3122 3123 3124 3125 3126 3127 3128 3128 3128 3128 3129 3130 3131 3131 3132 3133 3133 3133 3134 3135 3136 3137 3137 3138 3140 3141 3142 3143 3144 3145 3145 3146 3147
3118 3118 3118 3118 3118 3118 3118 3118 3117 3117 3117 3116 3116 3116 3116 3116 3117 3117 3117 3116 3116 3116 3117 3117 3118 3118 3118 3118 3119 3119 3120 3120 3121 3122 3123 3124 3125 3125 3125 3126 3127 3128 3128 3128 3129 3130 3129 3129 3130 3133 3134 3134 3134 3136 3136 3137 3138 3139 3140 3141 3142 3143 3144
3117 3118 3118 3118 3118 3117 3117 3117 3117 3116 3116 3115 3115 3115 3115 3115 3116 3116 3116 3116 3115 3115 3116 3116 3116 3116 3116 3116 3117 3117 3117 3118 3118 3119 3120 3121 3122 3122 3123 3123 3124 3125 3125 3125 3126 3126 3126 3125 3126 3128 3130 3130 3131 3132 3134 3134 3134 3135 3136 3137 3138 3139 3140
3117 3117 3117 3117 3117 3116 3116 3116 3116 3116 3115 3115 3114 3114 3114 3114 3114 3115 3115 3115 3115 3115 3115 3115 3115 3115 3115 3115 3115 3115 3116 3116 3116 3116 3117 3118 3119 3119 3119 3120 3121 3121 3122 3122 3123 3123 3123 3123 3123 3123 3124 3126 3126 3128 3131 3131 3130 3130 3132 3133 3134 3135 3136
3116 3116 3116 3116 3116 3115 3115 3115 3115 3115 3115 3114 3114 3113 3113 3113 3113 3113 3114 3114 3114 3114 3114 3114 3114 3114 3114 3114 3114 3114 3114 3114 3114 3114 3115 3115 3116 3116 3116 3117 3117 3118 3118 3118 3119 3119 3119 3119 3119 3119 3120 3121 3120 3123 3126 3126 3126 3127 3127 3128 3130 3131 3132
3115 3115 3116 3115 3115 3114 3114 3114 3113 3113 3113 3113 3113 3112 3112 3112 3111 3112 3112 3112 3112 3112 3112 3112 3113 3113 3113 3113 3113 3113 3113 3113 3113 3113 3113 3113 3113 3113 3114 3114 3115 3115 3115 3115 3115 3115 3115 3115 3115 3115 3116 3116 3115 3117 3120 3121 3122 3123 3124 3125 3126 3127 3128
3114 3114 3114 3114 3114 3114 3113 3113 3112 3112 3112 3112 3112 3111 3111 3111 3111 3110 3110 3110 3110 3111 3111 3111 3111 3111 3111 3112 3112 3111 3111 3111 3111 3111 3111 3111 3111 3111 3112 3112 3112 3112 3112 3112 3111 3111 3111 3112 3112 3111 3112 3112 3111 3112 3114 3115 3117 3118 3120 3123 3123 3122 3124
3112 3112 3113 3113 3113 3112 3112 3111 3111 3111 3110 3110 3110 3110 3110 3110 3110 3109 3109 3109 3109 3109 3109 3109 3109 3109 3109 3109 3110 3110 3109 3109 3109 3109 3109 3109 3109 3109 3109 3110 3110 3110 3110 3109 3109 3108 3108 3108 3108 3108 3108 3107 3107 3108 3109 3110 3111 3113 3116 3118 3118 3119 3120
3110 3111 3111 3111 3111 3111 3110 3110 3110 3109 3109 3109 3108 3108 3108 3108 3108 3108 3108 3107 3107 3107 3107 3107 3107 3107 3107 3107 3107 3107 3107 3107 3107 3107 3107 3107 3107 3107 3107 3107 3108 3108 3107 3106 3106 3106 3105 3105 3105 3106 3105 3104 3103 3103 3104 3105 3106 3109 3111 3112 3114 3115 3116
3109 3109 3109 3109 3109 3109 3109 3108 3108 3108 3107 3107 3107 3106 3106 3106 3106 3106 3105 3105 3105 3105 3106 3106 3106 3105 3105 3105 3105 3105 3104 3104 3104 3104 3104 3104 3104 3104 3105 3105 3105 3105 3104 3104 3104 3103 3103 3102 3102 3103 3103 3102 3100 3099 3100 3100 3101 3105 3108 3108 3109 3111 3112
3107 3107 3107 3107 3107 3107 3107 3107 3106 3106 3106 3105 3105 3104 3104 3103 3103 3103 3103 3103 3103 3103 3103 3103 3103 3103 3103 3103 3102 3102 3102 3102 3101 3101 3100 3101 3101 3101 3102 3102 3102 3102 3102 3101 3101 3101 3100 3099 3100 3100 3100 3100 3098 3096 3096 3096 3097 3101 3104 3104 3105 3107 3107
3105 3105 3105 3105 3105 3105 3105 3105 3104 3104 3103 3103 3103 3102 3102 3101 3101 3100 3100 3100 3100 3100 3100 3101 3101 3100 3100 3100 3099 3099 3099 3099 3099 3098 3098 3097 3097 3097 3098 3099 3099 3099 3099 3098 3098 3098 3097 3097 3096 3097 3097 3096 3096 3094 3094 3092 3092 3096 3099 3098 3100 3102 3102
3102 3102 3102 3103 3103 3103 3103 3102 3102 3102 3101 3101 3100 3100 3099 3099 3098 3098 3097 3097 3097 3097 3097 3098 3098 3097 3097 3096 3096 3096 3096 3096 3096 3096 3095 3095 3095 3094 3095 3095 3095 3095 3095 3095 3095 3094 3094 3094 3093 3093 3093 3093 3092 3091 3091 3089 3087 3090 3095 3094 3094 3097 3097
3100 3100 3100 3100 3100 3100 3100 3100 3099 3099 3098 3098 3097 3097 3096 3096 3095 3095 3095 3094 3094 3094 3094 3094 3094 3094 3093 3093 3093 3093 3093 3093 3093 3093 3093 3092 3092 3092 3092 3092 3092 3091 3091 3091 3091 3091 3091 3090 3089 3089 3089 3089 3089 3088 3087 3086 3083 3084 3089 3091 3090 3092 3093
3097 3097 3097 3097 3097 3097 3097 3097 3096 3096 3095 3095 3094 3094 3093 3093 3092 3092 3092 3091 3091 3091 3091 3091 3090 3090 3090 3089 3089 3089 3089 3089 3090 3090 3090 3089 3089 3088 3088 3089 3088 3088 3087 3087 3087 3087 3087 3087 3086 3086 3085 3084 3084 3084 3083 3082 3080 3079 3082 3086 3087 3087 3088
3094 3094 3094 3094 3094 3094 3094 3093 3093 3093 3092 3092 3091 3091 3090 3090 3089 3089 3089 3089 3088 3088 3088 3087 3086 3086 3086 3086 3086 3085 3085 3085 3085 3086 3085 3085 3085 3085 3084 3084 3084 3084 3083 3083 3083 3083 3082 3082 3082 3081 3082 3081 3080 3080 3080 3078 3076 3075 3076 3080 3082 3082 3083
3091 3091 3091 3091 3091 3090 3090 3090 3090 3089 3089 3089 3088 3088 3087 3087 3086 3086 3086 3086 3086 3085 3084 3084 3083 3083 3082 3082 3082 3082 3081 3081 3081 3081 3081 3081 3080 3080 3080 3080 3080 3079 3079 3078 3078 3078 3078 3077 3077 3076 3077 3077 3076 3076 3076 3074 3072 3071 3071 3074 3078 3078 3078
3088 3088 3088 3088 3087 3087 3087 3086 3086 3086 3085 3085 3085 3084 3084 3084 3083 3084 3084 3083 3083 3082 3081 3081 3080 3079 3079 3079 3078 3078 3077 3077 3077 3077 3077 3077 3076 3075 3074 3074 3075 3074 3073 3073 3073 3073 3073 3072 3072 3071 3071 3072 3072 3071 3071 3070 3068 3067 3067 3068 3072 3074 3074
3085 3085 3085 3084 3084 3083 3083 3083 3082 3082 3082 3081 3081 3081 3080 3080 3080 3080 3081 3080 3079 3079 3078 3077 3077 3076 3076 3075 3075 3074 3074 3073 3073 3073 3073 3072 3072 3071 3070 3069 3069 3069 3068 3067 3067 3067 3067 3066 3066 3066 3066 3066 3066 3066 3066 3066 3064 3063 3063 3063 3066 3069 3070
3081 3081 3081 3081 3080 3080 3079 3079 3078 3078 3077 3077 3077 3076 3076 3076 3077 3077 3077 3076 3076 3075 3075 3074 3073 3073 3072 3072 3071 3071 3070 3070 3069 3068 3068 3068 3067 3066 3065 3064 3064 3063 3063 3062 3061 3061 3061 3061 3060 3060 3060 3060 3060 3060 3060 3060 3060 3059 3058 3058 3060 3063 3064
3077 3077 3077 3077 3077 3076 3076 3075 3075 3074 3073 3073 3072 3072 3072 3072 3073 3073 3073 3072 3072 3071 3071 3070 3070 3069 3068 3068 3067 3066 3066 3065 3064 3064 3063 3063 3062 3061 3061 3060 3059 3058 3058 3057 3056 3055 3055 3055 3055 3054 3054 3054 3054 3054 3053 3054 3054 3054 3053 3053 3054 3057 3058
3072 3073 3073 3073 3073 3073 3072 3072 3071 3070 3069 3068 3068 3068 3068 3069 3069 3069 3068 3068 3068 3067 3067 3066 3066 3065 3064 3064 3063 3062 3061 3060 3059 3058 3058 3057 3057 3056 3055 3055 3054 3053 3052 3051 3051 3050 3049 3049 3048 3048 3048 3048 3048 3047 3047 3047 3048 3048 3047 3047 3048 3050 3052
3066 3067 3067 3068 3068 3068 3068 3068 3067 3066 3065 3064 3064 3064 3065 3065 3065 3065 3064 3064 3064 3063 3063 3063 3062 3061 3060 3059 3058 3057 3056 3055 3054 3053 3052 3051 3051 3050 3049 3049 3048 3047 3046 3046 3045 3044 3044 3043 3042 3042 3042 3042 3041 3041 3041 3041 3041 3041 3041 3041 3042 3044 3045
3061 3061 3061 3062 3063 3063 3063 3063 3063 3062 3061 3061 3061 3061 3061 3061 3061 3061 3060 3060 3060 3060 3059 3059 3058 3057 3056 3054 3053 3051 3050 3049 3048 3047 3046 3045 3044 3044 3043 3042 3041 3040 3040 3039 3038 3038 3037 3037 3036 3035 3035 3035 3035 3034 3034 3034 3035 3035 3035 3035 3036 3038 3039
3056 3057 3057 3057 3058 3059 3059 3059 3058 3058 3058 3057 3057 3057 3057 3057 3056 3056 3056 3056 3055 3055 3055 3054 3053 3052 3051 3049 3048 3046 3045 3043 3042 3041 3040 3039 3038 3037 3036 3036 3035 3034 3033 3032 3031 3031 3030 3030 3030 3029 3028 3028 3028 3028 3027 3027 3028 3029 3029 3028 3029 3031 3032
3050 3052 3053 3053 3053 3053 3054 3054 3054 3054 3053 3054 3054 3053 3053 3052 3052 3052 3051 3051 3051 3050 3050 3049 3048 3047 3045 3044 3042 3041 3039 3037 3036 3035 3034 3033 3031 3030 3029 3029 3028 3027 3026 3025 3024 3024 3023 3023 3023 3023 3022 3022 3021 3021 3021 3021 3021 3022 3022 3022 3022 3024 3027
3046 3048 3048 3047 3047 3047 3048 3049 3049 3049 3049 3050 3050 3049 3048 3048 3047 3047 3047 3046 3046 3046 3045 3044 3043 3041 3040 3038 3036 3035 3033 3031 3030 3029 3027 3026 3025 3023 3022 3021 3020 3020 3019 3018 3017 3016 3016 3015 3015 3015 3015 3015 3015 3015 3014 3014 3014 3015 3015 3015 3015 3017 3021
3042 3042 3043 3043 3043 3042 3043 3044 3044 3045 3046 3046 3045 3044 3044 3043 3043 3042 3042 3042 3041 3041 3040 3038 3037 3035 3033 3032 3030 3028 3026 3025 3023 3022 3021 3019 3018 3017 3015 3014 3013 3012 3011 3011 3010 3009 3008 3008 3007 3008 3008 3008 3008 3008 3008 3007 3007 3007 3008 3009 3009 3011 3014
3037 3037 3037 3038 3039 3039 3039 3039 3040 3041 3042 3041 3040 3039 3039 3039 3038 3038 3038 3037 3036 3035 3034 3033 3031 3029 3027 3025 3023 3021 3019 3018 3016 3015 3014 3013 3011 3010 3008 3007 3006 3005 3004 3003 3003 3002 3001 3000 3000 3000 3000 3000 3000 3000 3001 3001 3001 3000 3001 3001 3002 3003 3006
3031 3031 3031 3032 3034 3035 3035 3035 3036 3036 3036 3036 3035 3035 3035 3035 3034 3034 3033 3032 3031 3030 3028 3027 3025 3023 3021 3019 3017 3014 3012 3011 3009 3008 3007 3006 3004 3003 3001 3000 2998 2997 2996 2996 2995 2995 2994 2992 2992 2992 2991 2991 2991 2992 2993 2994 2994 2993 2993 2993 2994 2995 2997
3024 3024 3025 3027 3028 3030 3031 3031 3031 3031 3031 3031 3031 3031 3031 3031 3030 3029 3028 3027 3026 3024 3023 3021 3019 3017 3015 3013 3010 3008 3006 3004 3002 3001 3000 2998 2997 2995 2993 2992 2990 2989 2988 2987 2987 2986 2985 2984 2983 2983 2982 2982 2982 2983 2985 2986 2986 2986 2985 2985 2986 2986 2988
3018 3018 3018 3020 3023 3025 3025 3026 3026 3027 3028 3028 3027 3028 3028 3027 3026 3026 3024 3023 3021 3019 3017 3015 3013 3011 3009 3007 3004 3002 2999 2997 2995 2994 2992 2991 2989 2987 2985 2983 2982 2980 2979 2978 2977 2977 2976 2975 2974 2973 2973 2972 2972 2974 2976 2977 2977 2976 2976 2976 2977 2977 2979
3014 3014 3014 3015 3018 3020 3021 3022 3023 3024 3025 3024 3024 3024 3024 3024 3023 3022 3020 3018 3016 3014 3012 3010 3008 3006 3004 3001 2998 2996 2993 2990 2988 2986 2984 2982 2980 2978 2976 2974 2973 2971 2970 2969 2968 2967 2967 2965 2964 2963 2962 2961 2962 2964 2966 2967 2966 2966 2966 2966 2967 2968 2970
3008 3009 3011 3012 3014 3016 3017 3019 3020 3020 3020 3020 3020 3020 3019 3019 3019 3017 3015 3013 3012 3010 3007 3005 3003 3000 2998 2996 2993 2990 2987 2984 2981 2978 2976 2974 2971 2969 2967 2965 2963 2962 2960 2959 2958 2957 2956 2956 2954 2953 2952 2951 2952 2954 2955 2955 2955 2955 2956 2956 2957 2959 2961
3004 3005 3007 3009 3011 3013 3014 3015 3016 3016 3016 3016 3016 3016 3015 3015 3014 3012 3011 3009 3007 3005 3003 3000 2998 2995 2993 2991 2988 2985 2982 2978 2975 2971 2968 2965 2962 2960 2958 2956 2954 2952 2951 2949 2949 2947 2947 2946 2945 2943 2942 2942 2942 2943 2943 2943 2944 2944 2945 2946 2947 2949 2951
3002 3004 3005 3007 3009 3010 3011 3012 3013 3013 3014 3014 3013 3013 3012 3011 3010 3008 3007 3005 3003 3001 2998 2996 2994 2991 2988 2986 2983 2980 2976 2973 2969 2964 2960 2956 2953 2951 2949 2946 2945 2943 2941 2940 2939 2938 2937 2936 2935 2934 2933 2933 2932 2932 2931 2931 2931 2932 2934 2935 2936 2938 2941
3001 3002 3003 3005 3007 3008 3009 3010 3010 3011 3012 3012 3011 3010 3009 3007 3006 3004 3002 3001 2999 2997 2995 2993 2990 2987 2983 2980 2977 2974 2970 2966 2962 2957 2952 2948 2945 2942 2940 2938 2936 2934 2933 2931 2930 2928 2926 2925 2924 2923 2924 2923 2922 2921 2920 2919 2919 2920 2921 2923 2924 2926 2930